This is the latest recevied weather packets stored in our database for station/object WC4PEM-14. If no packets are shown the sender has not sent any weather packets the latest 1 day(s).
| Time | Temp. | Humidity | Pressure | Rain* | Wind** | Luminosity | Snow |
|---|---|---|---|---|---|---|---|
| 1778007844 | 32.78° C | 41% | 1014.6 hPa | 0 mm | 1.79 m/s, 302° | - | - |
| 1778007785 | 32.78° C | 41% | 1014.6 hPa | 0 mm | 1.79 m/s, 302° | - | - |
| 1778007554 | 32.78° C | 41% | 1014.7 hPa | 0 mm | 1.34 m/s, 111° | - | - |
| 1778007485 | 32.78° C | 41% | 1014.7 hPa | 0 mm | 1.34 m/s, 111° | - | - |
| 1778007185 | 32.78° C | 41% | 1014.8 hPa | 0 mm | 0.89 m/s, 157° | - | - |
| 1778006974 | 32.22° C | 42% | 1014.8 hPa | 0 mm | 1.34 m/s, 9° | - | - |
| 1778006885 | 32.22° C | 42% | 1014.8 hPa | 0 mm | 1.34 m/s, 9° | - | - |
| 1778006733 | 31.67° C | 43% | 1014.8 hPa | 0 mm | 1.34 m/s, 9° | - | - |
| 1778006585 | 31.67° C | 43% | 1014.8 hPa | 0 mm | 1.34 m/s, 9° | - | - |
| 1778006402 | 31.11° C | 45% | 1014.8 hPa | 0 mm | 1.34 m/s, 13° | - | - |
| 1778006285 | 31.11° C | 45% | 1014.8 hPa | 0 mm | 1.34 m/s, 13° | - | - |
| 1778006091 | 30.56° C | 47% | 1014.9 hPa | 0 mm | 1.79 m/s, 102° | - | - |
| 1778005985 | 30.56° C | 47% | 1014.9 hPa | 0 mm | 1.79 m/s, 102° | - | - |
| 1778005816 | 30° C | 47% | 1015.1 hPa | 0 mm | 1.79 m/s, 119° | - | - |
| 1778005685 | 30° C | 47% | 1015.1 hPa | 0 mm | 1.79 m/s, 119° | - | - |
| 1778005385 | 30.56° C | 45% | 1014.9 hPa | 0 mm | 1.79 m/s, 200° | - | - |
| 1778005085 | 30.56° C | 46% | 1015.1 hPa | 0 mm | 1.79 m/s, 101° | - | - |
| 1778004928 | 31.11° C | 45% | 1015.3 hPa | 0 mm | 0.89 m/s, 107° | - | - |
| 1778004785 | 31.11° C | 45% | 1015.3 hPa | 0 mm | 0.89 m/s, 107° | - | - |
| 1778004614 | 31.67° C | 44% | 1015.3 hPa | 0 mm | 1.34 m/s, 93° | - | - |
| 1778004485 | 31.67° C | 44% | 1015.3 hPa | 0 mm | 1.34 m/s, 93° | - | - |
| 1778004243 | 32.22° C | 43% | 1015.3 hPa | 0 mm | 1.34 m/s, 221° | - | - |
| 1778004185 | 32.22° C | 43% | 1015.3 hPa | 0 mm | 1.34 m/s, 221° | - | - |
| 1778003885 | 31.67° C | 43% | 1015.4 hPa | 0 mm | 1.34 m/s, 96° | - | - |
| 1778003838 | 32.22° C | 43% | 1015.5 hPa | 0 mm | 1.34 m/s, 9° | - | - |
* Rain latest hour (hover to see other rain measurements)
** Current wind speed in m/s (hover to see current wind gust speed)